EW0150 Weather Reports


time (UTC)temp
C
wind
direction
speed
KPH
gust
KPH
rain 1hr
cm
rain 24hr
cm
rain mn
cm
humidity
%
barometer
mb
20260505194007 20 167 14.5 29.0 0.00 0.00 0.00 45 1006.1
20260505193009 20 192 14.5 25.7 0.00 0.00 0.00 45 1006.2
20260505192004 20 167 12.9 19.3 0.00 0.00 0.00 44 1006.2
20260505190008 21 147 11.3 17.7 0.00 0.00 0.00 44 1006.2
20260505185005 21 157 14.5 19.3 0.00 0.00 0.00 43 1006.2
20260505184004 21 162 12.9 16.1 0.00 0.00 0.00 42 1006.2
20260505183005 21 160 12.9 20.9 0.00 0.00 0.00 41 1006.1
20260505182004 21 180 14.5 24.1 0.00 0.00 0.00 41 1006.1
20260505181005 22 201 12.9 22.5 0.00 0.00 0.00 40 1006.0
20260505180009 22 172 11.3 19.3 0.00 0.00 0.00 40 1006.0
20260505175007 22 195 16.1 24.1 0.00 0.00 0.00 39 1006.0
20260505173005 23 197 17.7 33.8 0.00 0.00 0.00 37 1006.0
20260505171004 23 169 16.1 24.1 0.00 0.00 0.00 30 1006.0
20260505170009 24 186 16.1 32.2 0.00 0.00 0.00 27 1005.9
20260505164004 25 155 19.3 29.0 0.00 0.00 0.00 25 1005.9
20260505163008 25 173 20.9 45.1 0.00 0.00 0.00 23 1005.9
20260505161005 25 186 20.9 38.6 0.00 0.00 0.00 21 1005.9
20260505153004 26 165 20.9 40.2 0.00 0.00 0.00 23 1006.2
20260505125006 26 156 17.7 32.2 0.00 0.00 0.00 19 1006.9
20260505124006 27 167 25.7 43.5 0.00 0.00 0.00 17 1006.9
20260505123007 27 198 29.0 57.9 0.00 0.00 0.00 17 1007.1
20260505122007 27 192 29.0 41.8 0.00 0.00 0.00 17 1007.1
20260505121007 27 144 22.5 38.6 0.00 0.00 0.00 18 1007.2
20260505120010 27 193 24.1 41.8 0.00 0.00 0.00 18 1007.4
20260505115007 27 200 29.0 57.9 0.00 0.00 0.00 16 1007.3
20260505114007 27 180 27.4 41.8 0.00 0.00 0.00 18 1007.4
20260505113007 27 194 25.7 45.1 0.00 0.00 0.00 18 1007.4
20260505112006 26 163 29.0 59.5 0.00 0.00 0.00 18 1007.5
20260505111006 25 196 22.5 45.1 0.00 0.00 0.00 21 1007.6
20260505102006 26 240 16.1 24.1 0.00 0.00 0.00 27 1008.2
20260505101006 26 174 17.7 30.6 0.00 0.00 0.00 25 1008.2
20260505100008 26 188 14.5 30.6 0.00 0.00 0.00 25 1008.3
20260505095005 25 227 14.5 27.4 0.00 0.00 0.00 27 1008.4
20260505094005 25 185 20.9 30.6 0.00 0.00 0.00 26 1008.4
20260505093005 25 177 24.1 40.2 0.00 0.00 0.00 25 1008.4
20260505092005 25 159 25.7 38.6 0.00 0.00 0.00 25 1008.4
20260505091005 25 193 22.5 35.4 0.00 0.00 0.00 27 1008.5
20260505090007 25 209 22.5 40.2 0.00 0.00 0.00 28 1008.5
20260505085005 25 151 22.5 41.8 0.00 0.00 0.00 27 1008.6
20260505084005 24 171 22.5 38.6 0.00 0.00 0.00 28 1008.8
20260505083005 24 184 22.5 35.4 0.00 0.00 0.00 29 1008.9
20260505080010 23 162 17.7 32.2 0.00 0.00 0.00 34 1009.0
20260505074005 22 182 16.1 30.6 0.00 0.00 0.00 34 1009.3
20260505073005 22 120 14.5 24.1 0.00 0.00 0.00 36 1009.4
20260505072005 21 142 11.3 19.3 0.00 0.00 0.00 38 1009.5
20260505071005 21 119 12.9 20.9 0.00 0.00 0.00 39 1009.6
20260505070008 21 141 11.3 19.3 0.00 0.00 0.00 38 1009.7
20260505065005 21 153 12.9 22.5 0.00 0.00 0.00 40 1009.8
20260505064005 20 145 11.3 17.7 0.00 0.00 0.00 42 1009.8
20260505062005 19 136 9.7 17.7 0.00 0.00 0.00 44 1009.9
20260505061005 18 127 8.0 12.9 0.00 0.00 0.00 46 1010.0
20260505060008 18 146 6.4 12.9 0.00 0.00 0.00 45 1010.1
20260505055005 17 132 8.0 12.9 0.00 0.00 0.00 45 1010.1
20260505054004 17 145 6.4 11.3 0.00 0.00 0.00 45 1010.2
20260505053005 17 128 4.8 11.3 0.00 0.00 0.00 47 1010.2
20260505052004 15 119 1.6 3.2 0.00 0.00 0.00 53 1010.3
20260505051004 14 119 1.6 3.2 0.00 0.00 0.00 57 1010.3
20260505040007 10 165 1.6 4.8 0.00 0.00 0.00 64 1010.5
20260505035004 9 165 1.6 6.4 0.00 0.00 0.00 66 1010.4
20260505033009 10 165 0.0 4.8 0.00 0.00 0.00 65 1010.5
20260505031006 9 165 1.6 3.2 0.00 0.00 0.00 67 1010.6
20260505030010 8 165 3.2 4.8 0.00 0.00 0.00 67 1010.6
20260505025007 8 165 3.2 6.4 0.00 0.00 0.00 68 1010.7
20260505024006 8 165 1.6 3.2 0.00 0.00 0.00 67 1010.9
20260505022009 9 165 0.0 1.6 0.00 0.00 0.00 66 1011.1
20260505021006 9 165 1.6 1.6 0.00 0.00 0.00 66 1011.1
20260505020011 9 165 1.6 3.2 0.00 0.00 0.00 67 1011.2
20260505015008 9 165 0.0 0.0 0.00 0.00 0.00 66 1011.3
20260505014009 10 165 1.6 3.2 0.00 0.00 0.00 63 1011.4
20260505012006 10 165 0.0 0.0 0.00 0.00 0.00 62 1011.4
20260505011006 10 165 0.0 3.2 0.00 0.00 0.00 61 1011.4
20260505010008 11 165 1.6 3.2 0.00 0.00 0.00 60 1011.5
20260505005006 11 165 1.6 3.2 0.00 0.00 0.00 60 1011.5
20260505004006 11 165 3.2 6.4 0.00 0.00 0.00 60 1011.6
20260505003011 11 165 1.6 3.2 0.00 0.00 0.00 60 1011.7
20260505002007 11 165 0.0 3.2 0.00 0.00 0.00 58 1011.8
20260505001008 11 165 1.6 4.8 0.00 0.00 0.00 56 1011.9
20260505000010 12 165 3.2 4.8 0.00 0.00 0.00 56 1011.8
20260504235006 11 165 3.2 6.4 0.00 0.00 0.00 58 1012.0
20260504234008 11 165 1.6 3.2 0.00 0.00 0.00 59 1012.1
20260504233009 12 165 1.6 3.2 0.00 0.00 0.00 56 1012.2
20260504231006 11 165 1.6 3.2 0.00 0.00 0.00 56 1012.4
20260504230008 12 165 0.0 3.2 0.00 0.00 0.00 53 1012.4
20260504225006 12 165 0.0 0.0 0.00 0.00 0.00 53 1012.5
20260504224007 12 165 0.0 1.6 0.00 0.00 0.00 51 1012.6
20260504223005 12 165 0.0 0.0 0.00 0.00 0.00 51 1012.6
20260504222006 13 165 1.6 4.8 0.00 0.00 0.00 47 1012.6
20260504221004 14 165 6.4 8.0 0.00 0.00 0.00 44 1012.6
20260504220010 15 165 6.4 9.7 0.00 0.00 0.00 43 1012.6
20260504214005 15 160 6.4 8.0 0.00 0.00 0.00 44 1012.7
20260504212005 16 160 3.2 6.4 0.00 0.00 0.00 41 1012.7
20260504211005 16 207 4.8 8.0 0.00 0.00 0.00 42 1012.7
20260504210011 16 192 4.8 6.4 0.00 0.00 0.00 40 1012.8
20260504205008 17 202 4.8 9.7 0.00 0.00 0.00 39 1012.8
20260504202005 17 197 4.8 8.0 0.00 0.00 0.00 40 1012.8
20260504200007 16 205 6.4 11.3 0.00 0.00 0.00 45 1012.7
20260504195005 16 210 6.4 9.7 0.00 0.00 0.00 49 1012.7